Probability
61 60 58 45 23 9 3 1 0 0 0 0 0 0 0 0 0 0 0 0 0 0 0 0 0 0 0 0 0 0 0 0 0 0 0 0 1 2 2 2 1 0 0
73 69 65 52 28 10 3 1 0 0 0 0 0 0 0 0 0 0 0 0 0 0 0 0 0 0 0 0 0 0 0 0 0 0 0 0 0 1 1 1 1 1 0
80 73 69 61 37 13 2 0 0 0 0 0 0 0 0 0 0 0 0 0 0 0 0 0 0 0 0 0 0 0 0 0 0 0 0 0 0 0 1 2 3 2 1
72 66 68 66 46 20 6 3 2 1 1 0 0 0 0 0 0 0 0 0 0 0 0 0 0 0 0 0 0 0 0 0 0 0 0 0 0 0 1 2 2 2 1
59 59 64 66 53 30 14 8 6 4 2 1 1 1 1 0 0 0 0 0 0 0 0 0 0 0 0 0 0 0 0 0 0 0 0 0 0 1 1 1 0 0 0
48 50 56 62 56 39 23 14 9 6 5 4 4 3 2 1 0 0 0 0 0 0 0 0 0 0 0 0 0 0 0 0 0 0 0 1 1 2 2 1 0 0 0
40 41 46 55 54 43 30 21 15 11 8 8 8 7 5 2 0 0 0 0 0 0 0 0 0 0 0 0 0 0 0 0 0 0 1 3 4 4 3 1 1 1 0
39 35 34 40 43 38 30 22 18 15 12 13 12 10 7 3 1 0 0 0 0 0 0 0 0 0 0 0 0 0 0 0 0 0 1 5 8 9 6 3 3 2 1
38 29 21 21 24 24 22 18 15 15 16 15 14 10 7 4 1 0 0 0 0 0 0 0 0 0 0 0 0 0 0 0 0 0 2 7 12 13 9 6 4 2 1
36 25 12 9 11 11 12 12 13 14 15 14 10 7 5 3 1 0 0 0 0 0 0 0 0 0 0 0 0 0 0 0 0 0 4 12 18 18 14 8 5 2 1
37 26 11 6 6 6 7 10 11 10 9 7 5 3 3 1 0 0 1 2 1 0 0 0 0 0 0 0 0 0 0 0 0 2 10 21 27 24 19 13 9 6 4
40 28 14 9 7 5 5 8 7 4 2 1 1 1 1 1 1 1 4 6 4 1 0 0 0 0 0 0 0 0 0 0 1 5 17 31 35 30 24 19 14 10 8
39 28 18 14 11 8 7 7 4 3 2 2 1 1 1 2 2 2 5 7 5 2 1 1 1 0 0 0 0 0 1 0 1 6 19 34 40 37 31 24 18 13 11
41 31 26 27 24 22 19 11 6 6 6 6 7 6 4 2 2 4 7 8 5 4 4 4 2 1 1 1 0 1 2 3 4 7 18 33 42 42 36 29 22 17 14
49 43 44 48 47 49 44 27 17 17 16 16 17 14 8 5 5 8 13 15 12 11 12 11 8 8 8 5 3 4 7 10 12 13 20 33 43 45 41 34 27 21 18
58 58 63 69 71 74 66 48 33 31 28 28 30 25 16 15 17 20 24 25 23 21 23 24 23 21 18 13 11 13 17 18 20 21 24 30 38 45 46 40 31 24 20
71 72 76 79 83 85 77 61 46 41 40 44 46 40 31 32 37 39 38 37 34 33 36 38 37 34 28 23 22 23 25 25 25 25 26 26 30 39 45 41 33 26 21
85 85 83 83 87 89 83 69 55 50 54 62 64 59 51 51 55 56 53 49 47 48 49 47 44 42 39 34 30 29 30 30 29 28 26 25 25 28 34 34 31 25 20
92 91 86 85 89 90 85 74 64 63 69 75 76 71 66 64 66 65 63 61 61 63 61 53 49 50 48 41 32 28 29 31 31 29 26 24 21 19 20 22 22 18 15
94 92 88 87 89 87 82 77 75 76 78 78 76 72 67 65 67 67 64 64 66 69 67 60 55 52 47 39 27 23 24 26 26 26 23 20 16 11 9 9 10 8 7
89 89 86 85 86 84 80 80 84 82 78 74 69 63 59 57 59 60 59 61 63 65 64 59 54 46 38 32 25 18 16 17 17 17 16 13 9 5 3 3 3 2 2
82 80 78 77 80 81 80 83 87 82 73 65 58 49 43 42 43 45 47 50 53 53 51 47 41 34 27 23 20 14 9 8 8 7 7 5 3 2 1 1 1 0 0
68 68 67 69 73 75 77 82 83 77 66 55 44 33 26 25 25 26 29 32 34 35 33 30 25 21 16 12 9 6 3 2 2 2 2 1 1 1 0 0 0 0 0
50 52 56 61 64 65 68 72 72 66 55 43 30 20 15 13 13 14 15 17 17 17 17 15 13 10 7 4 2 1 1 1 1 1 0 0 0 0 0 0 0 0 0
33 37 42 47 51 52 54 57 56 50 41 29 18 12 8 7 6 7 7 7 7 6 6 5 4 3 1 0 0 0 0 1 1 1 0 0 0 0 0 0 0 0 0
25 28 32 36 40 42 44 47 45 38 30 20 13 8 4 2 2 2 2 2 2 1 1 0 0 0 0 0 0 0 0 0 0 1 0 0 0 0 0 0 0 0 0
Wind_Speed
19 19 20 18 17 17 17 16 15 14 13 12 12 11 11 11 12 12 12 12 11 11 11 11 11 10 11 11 12 12 13 12 13 14 15 14 13 11 9 8 10 12 14
23 20 19 18 18 17 17 16 16 14 13 13 12 11 11 11 11 11 11 11 11 11 11 11 10 10 10 10 10 10 10 10 10 11 13 12 11 10 9 7 10 10 13
22 19 18 18 18 18 17 16 16 15 14 13 12 12 11 11 11 11 11 11 10 10 10 10 10 10 9 9 9 8 7 7 7 8 9 8 9 10 11 14 15 13 11
20 17 17 18 17 18 17 16 16 16 15 14 13 12 12 11 11 11 11 10 10 10 10 10 9 9 9 8 7 6 4 3 3 5 4 6 8 10 10 11 12 11 10
18 16 17 18 17 17 17 16 16 16 15 14 13 12 12 11 10 10 10 10 9 9 9 9 9 8 7 7 5 3 1 1 3 6 3 6 8 10 10 9 9 9 9
18 18 17 17 18 17 17 16 16 15 15 14 13 12 11 11 10 10 10 9 9 8 8 8 8 7 6 5 4 1 2 4 7 6 2 7 9 10 10 8 8 8 7
19 18 17 16 17 17 17 16 16 15 14 14 13 12 11 10 10 10 9 9 9 8 8 7 7 6 5 3 2 1 5 7 8 6 2 7 10 11 10 8 7 7 6
19 19 16 17 18 17 17 16 15 15 14 13 12 12 11 10 9 9 9 9 8 8 7 7 6 5 4 2 1 3 6 10 8 3 5 9 12 12 10 8 7 6 6
20 19 16 15 15 16 16 16 15 14 14 13 12 12 11 10 10 10 9 9 8 7 7 6 5 4 3 3 3 5 7 9 9 5 4 8 12 12 11 8 7 6 5
19 18 17 16 15 14 14 15 16 15 14 13 13 12 12 11 10 10 10 8 8 7 7 6 5 5 4 4 5 6 8 9 8 5 3 8 13 12 11 9 7 6 5
18 17 17 17 15 14 14 14 14 14 13 13 12 12 11 9 9 8 9 11 9 8 7 7 6 6 6 8 9 9 8 6 6 2 5 12 12 12 11 9 7 7 6
18 18 17 17 16 15 13 12 9 10 10 9 9 10 7 5 5 7 11 12 11 9 8 8 8 8 8 6 9 10 6 8 6 2 7 14 13 12 11 9 8 8 7
17 15 17 17 14 14 11 10 7 6 8 8 9 9 6 4 4 6 6 7 7 8 7 7 8 7 7 6 4 6 7 6 2 2 9 14 13 12 11 10 9 8 8
17 16 17 17 13 11 11 9 8 7 7 6 7 9 6 3 3 4 4 6 6 5 5 5 5 7 7 5 4 5 5 3 0 2 7 14 13 12 11 10 9 9 8
14 14 15 15 12 9 8 8 8 7 8 7 7 7 5 4 3 2 2 2 3 3 4 4 4 3 3 3 3 3 2 1 2 2 4 10 11 11 10 10 9 8 8
11 12 13 15 12 10 7 5 5 6 6 6 5 6 6 4 3 2 1 1 1 1 0 1 1 1 1 2 3 3 2 2 1 1 4 5 7 8 8 7 7 7 7
12 10 11 12 12 10 9 7 6 6 6 5 5 5 5 4 3 2 1 1 1 1 1 1 2 2 2 2 2 3 2 2 1 1 3 3 4 6 6 6 6 5 6
13 11 10 11 12 9 7 5 4 5 5 5 5 4 5 3 3 2 1 0 0 1 1 0 1 2 2 2 2 2 2 1 1 0 0 2 3 3 4 5 5 5 4
9 10 9 9 11 10 8 5 4 3 4 4 4 4 4 3 3 2 1 1 1 1 1 2 0 1 2 2 2 2 2 2 1 1 1 1 2 3 3 4 5 5 4
8 8 8 8 9 8 6 5 3 4 4 3 4 4 4 3 3 2 1 1 1 1 1 1 1 0 1 2 3 2 2 1 2 2 1 2 2 2 3 3 3 3 4
8 7 6 7 7 6 5 6 5 4 4 3 4 5 5 4 4 3 1 2 1 1 1 1 1 1 1 2 1 2 2 2 2 2 2 2 3 3 2 3 2 2 2
7 6 5 5 6 5 4 4 4 5 4 5 5 6 6 6 5 3 3 3 2 2 3 3 2 1 1 2 1 1 1 1 2 2 2 3 4 3 3 4 4 3 3
6 5 3 4 4 4 3 3 5 5 4 4 5 5 7 8 8 7 7 5 5 5 4 4 4 3 1 2 3 1 0 1 1 1 2 3 3 2 2 2 3 3 4
9 7 6 5 4 4 4 4 6 5 5 5 6 6 9 10 10 9 8 7 7 6 6 6 6 4 3 2 2 2 2 2 1 1 1 1 1 1 2 2 2 3 4
10 9 8 8 7 6 5 5 6 7 7 7 8 10 9 9 10 10 10 9 9 8 8 8 8 7 5 4 3 2 2 2 2 1 1 1 1 1 1 1 1 1 2
12 11 9 10 10 9 9 8 8 11 11 10 10 10 8 7 9 11 11 10 9 8 9 8 8 10 7 7 5 5 3 3 3 2 2 2 2 2 1 0 0 0 1
Wind_Direction
124 131 133 135 139 141 141 140 138 135 132 127 123 117 110 104 100 98 95 94 95 96 97 97 94 88 83 80 80 81 83 84 84 86 88 89 89 89 89 101 109 97 100
126 131 133 135 140 143 144 144 142 138 135 131 128 123 117 113 108 104 100 99 98 99 100 100 98 95 91 88 87 88 90 92 97 103 106 99 92 84 74 72 94 105 106
124 131 133 136 141 144 146 145 144 141 139 137 134 130 124 120 114 110 106 104 103 103 104 103 102 100 97 96 96 97 100 110 121 135 143 119 103 88 82 85 95 105 106
127 137 134 136 141 144 145 145 144 145 144 142 141 137 131 127 121 116 113 110 108 108 108 107 105 103 102 101 101 105 116 136 162 189 198 129 119 102 95 96 101 105 107
131 134 130 138 140 143 144 144 146 148 147 147 145 142 137 132 126 122 119 116 115 113 112 111 108 107 105 104 102 106 142 237 257 250 241 108 103 115 109 108 109 110 111
134 132 134 138 139 142 144 145 147 149 149 149 148 145 140 137 132 129 126 122 121 120 118 116 113 111 109 105 103 93 294 291 284 255 183 124 118 126 123 123 120 119 120
138 132 137 136 138 141 144 146 147 148 148 149 148 145 142 139 137 134 131 129 128 128 126 123 122 121 119 114 108 305 298 298 276 276 133 121 124 135 135 134 132 131 131
136 133 135 136 138 141 144 145 146 147 148 148 147 144 142 140 140 138 137 136 136 136 135 133 133 133 136 146 214 286 294 296 296 309 112 115 136 140 140 141 142 145 145
135 135 143 141 140 141 143 144 146 146 146 145 145 144 144 144 146 146 144 144 144 144 146 148 152 156 168 197 236 268 283 291 294 283 140 128 144 143 145 149 154 157 157
138 142 150 149 146 146 146 147 147 146 146 147 148 150 150 152 156 156 154 152 154 158 163 167 174 185 200 217 234 252 269 286 276 279 112 133 148 149 151 157 164 167 169
144 147 153 153 154 156 152 149 149 150 150 151 155 158 160 171 171 172 170 156 165 173 180 187 197 209 219 226 234 243 258 259 260 222 112 140 157 157 158 165 173 178 183
151 155 156 154 159 162 155 148 158 162 159 172 167 170 188 192 181 175 152 162 173 183 193 203 213 222 232 230 223 230 245 244 254 178 135 153 165 164 164 170 180 186 192
157 158 156 156 163 162 147 156 164 169 163 188 173 178 197 197 181 152 154 165 180 191 204 202 213 227 226 231 207 205 233 250 234 146 146 163 168 167 168 175 183 191 196
160 163 157 155 161 158 150 161 163 165 166 183 171 183 189 197 199 169 173 175 185 196 204 193 216 222 232 238 227 225 240 248 28 105 154 166 169 170 172 179 187 195 201
166 162 155 155 153 145 141 161 167 167 170 177 170 182 177 183 204 176 177 172 202 194 189 212 225 230 238 257 268 265 278 333 37 75 147 168 169 171 175 182 189 197 203
170 161 152 153 147 141 143 155 152 156 154 163 161 172 176 176 173 169 175 162 261 290 190 195 279 324 307 308 310 313 321 344 56 94 124 153 167 169 170 177 187 197 204
159 156 147 150 148 147 151 163 152 155 156 156 153 159 164 173 155 158 172 167 252 307 357 8 333 334 295 282 296 312 320 327 360 60 123 148 162 173 170 172 178 186 197
150 144 146 155 149 146 150 160 154 158 149 144 142 149 157 167 147 148 158 147 7 339 25 336 318 327 316 316 314 301 309 309 335 38 115 133 140 159 158 157 158 165 180
125 133 143 141 146 153 155 158 158 136 126 129 128 131 140 147 135 138 140 94 62 27 11 295 348 303 302 306 295 291 311 316 328 312 344 93 129 150 141 150 147 142 144
110 123 131 133 141 148 149 151 148 133 116 110 105 96 106 111 105 109 115 71 41 47 8 331 338 34 347 317 304 319 329 351 359 25 8 38 66 76 98 129 137 126 122
97 105 119 132 138 147 156 165 162 151 133 104 84 82 83 74 72 77 69 78 65 72 38 351 336 4 10 342 319 303 319 358 22 26 26 31 56 60 74 101 105 107 115
93 106 113 122 138 151 159 158 148 135 114 101 87 72 64 58 47 58 47 48 48 50 51 36 28 70 36 11 339 308 302 322 7 19 33 32 35 34 46 65 66 75 80
52 75 115 130 130 134 135 136 126 111 112 105 89 71 58 55 48 42 44 47 44 47 50 41 30 40 52 46 36 15 303 285 341 17 34 48 38 26 33 61 71 70 74
33 45 54 71 95 114 126 132 135 135 125 103 89 78 64 56 52 49 48 49 50 51 50 44 40 39 42 40 39 36 39 17 337 323 5 35 49 44 31 29 64 76 87
33 38 45 56 63 70 77 96 112 106 97 93 90 83 72 62 56 57 58 55 53 53 51 50 49 45 44 40 32 28 27 29 14 347 325 345 349 10 24 23 48 78 94
41 40 45 57 58 60 69 77 93 100 101 98 91 87 77 70 61 58 60 60 58 57 53 52 55 54 47 46 43 41 37 30 17 10 343 337 335 317 282 245 246 145 107